Temperature
18 18 19 19 19 19 19 19 19 19 19 19 19 18 18 18 18 18 19 18 18 18 18 18 18 18 18 18 18 18 18 18 18 17 17 17 17 17 17 17 17 17 17
19 19 19 19 19 19 19 19 19 19 19 19 19 19 19 19 18 18 18 18 18 18 18 18 18 18 18 18 18 18 18 18 17 17 17 17 17 17 17 17 17 17 17
19 19 19 19 19 19 19 19 19 19 19 19 19 19 18 18 18 18 18 18 18 18 18 18 18 18 18 18 18 18 17 17 17 17 17 17 17 17 17 17 17 17 17
19 19 19 19 19 19 19 19 19 19 19 19 19 18 18 18 18 18 18 18 18 18 18 18 18 18 18 18 17 17 17 17 17 17 17 17 17 17 17 17 17 17 17
19 19 19 19 19 19 19 19 19 19 19 19 18 18 18 18 18 18 18 18 18 18 18 18 18 18 18 17 17 17 17 17 17 17 17 17 17 17 17 17 17 17 17
20 19 19 19 19 19 19 19 19 19 19 18 18 18 18 18 18 18 18 18 18 18 18 18 18 18 17 17 17 17 17 17 17 17 17 17 17 17 17 17 17 17 17
20 20 19 19 19 19 19 19 19 19 19 18 18 18 18 18 18 18 18 18 18 18 18 18 17 17 17 17 17 17 17 17 17 17 17 17 17 17 17 17 17 17 17
20 20 19 19 19 19 19 19 19 19 18 18 18 18 18 18 18 18 18 18 18 18 18 17 17 17 17 17 17 17 17 17 17 17 17 17 17 17 17 17 17 17 17
20 20 19 19 19 19 19 19 19 18 18 18 18 18 18 18 18 18 18 17 18 17 17 17 17 17 17 17 17 17 17 17 17 17 17 17 17 17 17 17 17 17 17
20 20 19 19 19 19 19 19 18 18 18 18 18 18 18 18 18 18 18 18 17 17 17 17 17 17 17 17 17 17 17 17 17 17 17 17 17 17 17 17 17 17 16
20 19 19 19 19 19 19 18 18 18 18 18 18 18 18 18 18 18 17 17 17 17 17 17 17 17 17 17 17 17 17 17 17 17 17 17 17 17 17 17 17 17 16
20 20 19 19 19 19 19 19 19 18 18 18 18 18 18 18 18 18 17 17 17 17 17 17 17 17 17 17 17 17 17 17 17 17 17 17 17 17 17 17 17 17 16
20 20 20 19 19 19 19 19 19 19 18 18 18 18 18 18 18 18 18 17 17 17 17 17 17 17 17 17 17 17 17 17 17 17 17 17 17 17 17 17 17 17 17
20 20 20 19 19 19 19 19 19 19 18 18 18 18 18 18 18 18 18 18 17 17 17 17 17 17 17 17 17 17 17 17 17 17 17 17 17 17 17 17 17 17 16
20 20 20 20 19 19 19 19 19 19 18 18 18 18 18 18 18 18 18 18 17 17 17 17 17 17 17 17 17 17 17 17 17 17 17 17 17 17 17 17 17 17 16
21 20 20 20 19 19 19 19 19 18 18 18 18 18 18 18 18 18 18 18 17 17 17 17 17 17 17 17 17 17 17 17 17 17 17 17 17 17 17 17 17 16 16
21 20 20 20 19 19 19 19 18 18 18 18 18 18 18 18 18 18 18 18 18 17 18 17 17 17 17 17 17 17 17 17 17 17 17 17 17 17 17 17 17 17 16
21 21 20 20 19 19 19 18 18 18 18 18 18 18 18 18 18 18 18 17 17 18 18 17 17 17 17 17 17 17 17 17 17 17 17 17 17 17 17 17 16 16 16
21 21 20 20 19 19 19 18 18 18 18 18 18 18 18 18 18 17 17 17 17 17 17 17 17 17 17 17 17 17 17 17 17 17 17 17 17 17 17 17 16 16 16
21 21 20 20 19 19 19 18 18 18 18 18 18 18 18 18 18 17 17 17 17 17 17 17 17 17 17 17 17 17 17 17 17 17 17 17 17 17 17 17 16 16 16
21 21 20 20 19 19 19 19 18 18 18 18 18 18 18 18 17 17 17 17 17 17 17 17 17 17 17 17 17 17 17 17 17 17 17 17 17 17 17 16 16 16 16
21 21 20 20 19 19 19 19 18 18 18 18 18 18 18 18 18 17 17 17 17 17 17 17 17 17 17 17 17 17 17 17 17 17 17 17 17 17 17 17 16 16 16
21 21 20 20 19 19 19 19 18 18 18 18 18 18 18 18 17 17 17 17 17 17 17 17 17 17 17 17 17 17 17 17 17 17 17 17 17 17 17 17 17 16 16
21 21 20 20 19 19 19 19 18 18 18 18 18 18 18 18 17 17 17 17 17 17 17 17 17 17 17 17 17 17 17 17 17 17 17 17 17 17 17 17 17 16 16
21 21 20 20 20 19 19 19 19 19 19 18 18 18 18 18 18 17 17 17 17 17 17 17 17 17 17 17 17 17 17 17 17 16 16 17 17 17 17 17 17 17 16
21 21 20 20 20 20 19 19 19 19 19 18 18 18 18 18 17 17 17 17 17 17 17 17 17 17 17 17 17 17 17 17 17 17 16 16 16 16 16 16 16 16 16
Wind_Speed
3 6 12 13 14 15 16 16 17 17 17 18 17 17 16 16 15 15 14 14 14 14 14 13 14 14 14 13 13 14 14 14 14 15 15 15 15 16 16 16 15 14 16
6 8 13 13 14 14 15 16 16 16 17 16 16 16 16 15 15 14 14 13 13 14 14 13 13 13 13 13 13 14 13 13 13 14 14 14 14 15 15 15 15 14 16
8 9 13 13 14 14 14 15 15 15 15 15 15 15 14 14 14 13 13 13 13 13 13 13 13 13 13 13 13 13 13 13 13 14 13 12 13 14 14 14 15 15 15
9 10 12 14 14 14 14 14 14 14 14 14 14 13 13 13 13 13 13 12 13 12 12 12 13 13 13 13 13 13 12 13 13 14 11 11 11 13 14 14 15 15 15
8 10 13 14 14 13 13 13 13 13 13 13 12 12 12 12 12 12 12 12 12 12 12 12 12 12 13 12 12 12 12 12 13 12 10 10 10 13 14 13 14 15 14
7 9 12 14 13 13 13 12 12 12 12 12 11 11 11 11 11 12 12 12 12 11 11 11 12 12 12 12 12 11 11 12 12 11 10 10 10 13 14 14 14 14 14
7 8 11 13 13 12 12 12 11 11 11 11 10 10 10 10 11 11 11 11 11 11 11 11 11 12 11 11 11 11 12 12 11 10 9 9 10 12 13 13 14 14 14
7 7 10 12 12 12 11 11 11 10 10 10 9 9 9 10 10 10 10 10 10 11 10 10 11 11 10 10 10 10 11 11 10 9 9 9 10 11 12 12 13 13 13
6 6 7 9 10 11 11 10 10 10 9 9 9 9 9 9 9 9 9 10 10 10 10 10 10 10 9 9 9 10 10 11 10 8 8 8 10 11 11 12 12 13 12
5 4 4 6 7 8 9 10 9 9 9 9 8 9 9 8 8 8 8 9 9 9 9 9 9 9 9 8 8 9 10 10 8 7 7 8 10 10 11 11 11 11 11
6 3 3 4 6 6 7 8 8 8 8 8 7 8 7 7 6 6 7 7 8 8 8 8 7 8 8 7 7 10 9 8 7 6 6 8 9 9 10 10 10 10 11
8 6 4 4 4 5 6 6 6 5 5 5 5 6 6 6 5 5 5 6 7 7 7 7 7 7 7 6 7 8 7 7 6 5 6 8 9 9 9 10 10 10 10
9 8 7 6 5 5 3 5 4 4 4 4 5 5 6 5 4 4 3 4 4 5 5 6 6 5 5 5 5 5 6 5 5 5 6 8 8 9 9 9 10 10 10
9 8 7 6 5 5 4 4 4 4 3 3 4 5 5 3 2 2 3 3 3 4 4 4 4 4 4 4 5 5 5 5 4 4 5 8 9 9 9 9 9 10 9
9 8 7 7 6 5 5 4 4 4 4 4 4 5 5 4 2 2 1 2 2 2 2 2 3 2 3 3 4 4 4 4 5 5 5 7 8 9 9 9 9 9 9
11 10 8 8 7 6 4 3 3 5 5 5 5 6 6 5 4 3 2 1 1 1 1 2 2 2 2 2 2 3 3 4 4 5 5 5 7 8 9 9 9 9 10
10 9 9 9 6 6 6 5 4 5 5 4 5 6 7 6 5 4 2 2 1 2 2 2 2 2 1 1 1 1 2 3 4 5 5 5 6 8 9 10 10 10 10
9 9 9 9 8 7 5 4 4 5 5 5 6 7 8 8 7 5 3 2 3 3 2 2 1 1 1 1 1 1 1 2 4 5 5 5 5 6 8 10 10 11 11
10 10 10 8 8 7 5 4 4 4 5 5 6 6 7 8 8 6 4 3 4 3 2 2 1 1 1 1 1 1 1 2 3 5 5 6 6 6 6 8 10 11 12
9 9 9 7 7 6 4 3 2 2 2 4 5 6 7 8 8 7 4 4 4 2 2 2 2 1 1 1 1 0 1 2 2 3 4 5 6 7 7 7 8 9 12
8 8 9 9 7 7 4 4 3 3 2 2 4 6 7 7 8 7 4 4 4 3 4 3 2 2 1 2 1 1 2 1 2 2 3 3 4 6 6 7 8 7 7
9 9 9 9 9 8 5 4 3 3 2 2 2 4 6 7 8 7 5 4 4 3 3 4 3 2 2 2 2 1 1 2 1 1 2 3 3 3 5 6 6 6 7
10 10 10 10 9 8 6 4 3 2 1 1 2 2 4 6 7 6 6 5 4 4 4 4 4 4 3 2 3 3 3 3 1 1 1 2 2 2 3 3 4 5 6
9 8 8 9 9 8 8 6 6 5 4 5 3 3 3 4 5 6 6 6 5 4 4 5 5 4 4 3 2 2 2 3 2 1 1 1 1 2 2 2 3 4 4
8 8 7 8 8 7 8 8 7 5 4 2 2 2 3 2 4 5 6 5 5 4 5 5 4 5 4 4 4 3 3 2 2 2 2 1 1 1 2 2 2 3 3
7 7 7 8 7 7 8 8 7 7 6 4 3 3 3 2 2 3 5 5 5 4 5 5 5 5 5 4 4 4 4 3 4 4 4 3 2 1 1 1 1 1 2
Wind_Direction
157 150 134 123 118 113 110 109 108 108 108 111 113 113 115 116 116 116 115 115 114 113 113 114 115 117 118 118 120 120 121 121 121 121 121 121 120 120 120 118 116 116 117
145 147 135 127 122 116 113 112 111 111 111 111 113 113 115 116 116 116 115 115 114 114 112 112 113 115 118 121 121 121 122 122 123 126 124 122 122 121 121 122 122 122 121
133 140 136 131 126 121 118 116 114 113 113 114 114 114 115 116 116 117 115 114 114 113 113 113 113 115 116 119 120 121 122 121 119 121 116 116 123 125 124 126 126 125 123
134 136 137 134 129 125 122 120 118 117 116 116 116 116 117 118 118 118 116 115 114 113 114 115 116 115 115 117 119 120 121 120 117 115 110 116 123 129 127 126 127 126 125
127 136 142 137 133 129 126 124 122 120 119 119 119 119 119 120 120 119 118 117 115 114 114 116 118 117 116 117 118 119 120 120 117 112 109 113 121 129 127 128 129 128 125
126 138 145 139 136 133 131 128 126 125 124 124 123 123 122 122 122 122 120 117 114 113 113 116 117 117 116 116 118 116 116 115 109 110 111 116 124 130 130 131 129 128 128
133 140 145 141 139 136 134 133 131 129 127 126 126 125 125 124 124 124 121 118 116 113 111 113 116 118 116 115 117 117 118 117 112 114 115 118 126 129 131 130 131 130 129
134 135 143 144 143 141 140 138 134 132 130 128 126 125 125 125 124 125 124 121 118 114 111 111 112 115 116 115 117 119 121 123 121 122 122 125 130 132 133 133 135 135 133
125 128 137 146 148 147 145 143 140 137 133 131 129 126 126 126 127 127 124 123 120 116 113 111 112 113 113 112 117 123 127 125 126 129 131 132 134 134 137 139 140 138 138
121 123 131 135 140 143 147 147 144 141 138 135 133 131 129 127 127 126 123 123 122 120 119 117 113 110 107 106 118 127 129 128 131 133 137 142 142 141 143 144 144 145 144
154 137 132 131 132 138 147 153 150 148 145 140 137 131 117 103 106 114 125 128 126 125 124 121 115 112 104 101 115 125 124 130 136 142 150 154 154 153 151 149 150 151 148
173 175 163 149 147 150 158 144 140 137 135 130 122 114 106 102 107 113 123 130 128 126 122 118 114 109 102 98 109 117 125 134 142 152 164 165 165 163 159 157 159 160 158
176 181 175 167 165 164 152 141 137 136 133 130 129 123 114 102 94 87 84 90 92 95 89 92 91 97 106 111 111 121 138 142 153 162 172 173 173 170 169 167 170 171 169
178 187 181 170 171 174 164 161 154 153 148 139 139 139 130 116 101 88 79 77 76 83 88 86 91 97 106 120 135 145 157 164 168 173 183 185 184 180 178 176 179 181 177
184 189 184 178 183 177 174 180 173 172 168 163 160 167 164 155 150 134 101 80 77 97 109 103 103 107 114 126 152 165 169 174 180 184 193 195 193 192 188 187 189 187 184
190 191 184 188 187 177 178 182 176 179 180 176 180 186 184 180 173 162 151 138 113 123 141 131 126 124 125 133 155 168 176 178 185 190 200 205 203 200 199 199 198 195 192
190 187 187 189 182 181 184 186 181 182 184 186 193 196 193 190 185 179 172 180 186 162 137 117 105 102 121 128 147 167 180 193 197 200 204 210 212 208 206 208 206 201 201
184 183 188 190 183 185 179 176 174 178 184 194 200 203 202 196 191 185 184 197 192 169 154 141 131 119 130 151 190 220 199 203 215 215 212 212 212 214 215 213 211 209 210
185 181 180 182 178 177 166 167 170 178 189 198 202 206 207 200 195 192 198 204 187 171 178 182 154 163 182 194 214 243 229 224 227 225 216 215 216 215 218 224 223 221 221
180 176 176 173 170 161 150 143 145 163 184 193 202 210 206 203 198 196 203 204 182 172 189 187 177 165 174 185 210 283 279 249 234 233 226 218 217 222 225 230 233 235 234
171 172 175 173 171 165 162 160 167 189 193 195 207 210 203 201 198 195 202 193 185 192 201 192 175 177 191 154 122 352 332 306 256 244 230 223 224 227 231 232 231 233 237
181 181 180 180 178 183 178 163 164 165 188 197 205 204 207 202 201 203 197 197 195 196 194 191 180 171 186 171 158 135 328 335 337 271 227 225 232 232 236 233 229 230 234
187 187 189 185 182 185 170 143 123 107 100 173 210 213 211 205 206 207 201 198 199 196 206 207 191 184 196 201 186 165 176 231 289 337 285 236 231 229 235 228 228 229 232
191 182 183 181 180 181 172 172 169 177 191 204 200 207 212 210 211 208 203 201 198 199 208 215 202 197 188 204 204 209 201 176 181 276 334 313 260 247 248 248 243 234 231
177 176 178 173 178 179 178 182 182 187 192 187 185 204 218 220 218 211 203 200 202 208 213 214 202 202 201 201 198 189 200 208 203 202 252 292 344 296 258 247 249 243 229
166 169 170 172 180 179 181 186 189 190 185 180 193 206 216 219 233 226 213 204 206 209 213 215 210 206 210 211 209 200 189 190 197 197 221 237 253 284 292 281 263 248 219
Height
1525 1527 1528 1529 1530 1531 1531 1532 1533 1534 1535 1536 1536 1538 1539 1539 1541 1542 1543 1544 1545 1546 1547 1548 1549 1550 1551 1552 1553 1555 1556 1557 1558 1559 1560 1561 1562 1563 1564 1565 1567 1568 1569
1526 1528 1530 1531 1532 1533 1534 1535 1536 1536 1537 1538 1539 1540 1541 1542 1543 1544 1545 1546 1547 1548 1549 1550 1551 1552 1553 1554 1555 1556 1557 1558 1559 1560 1562 1563 1564 1565 1566 1567 1569 1570 1571
1527 1529 1531 1532 1534 1535 1536 1537 1538 1539 1540 1540 1541 1542 1543 1544 1545 1546 1547 1548 1549 1550 1551 1552 1553 1554 1555 1556 1557 1558 1559 1560 1561 1562 1563 1564 1566 1567 1568 1569 1570 1572 1573
1529 1530 1532 1534 1535 1537 1538 1539 1540 1541 1542 1543 1543 1544 1545 1546 1547 1548 1549 1550 1551 1552 1553 1554 1555 1556 1557 1558 1559 1560 1561 1562 1563 1564 1565 1566 1567 1568 1570 1571 1572 1573 1575
1530 1532 1534 1536 1537 1538 1539 1541 1542 1543 1544 1544 1545 1546 1547 1548 1549 1550 1551 1552 1553 1554 1555 1555 1556 1557 1559 1560 1561 1562 1563 1564 1565 1566 1567 1568 1569 1570 1571 1572 1573 1575 1576
1532 1534 1536 1537 1539 1540 1541 1542 1543 1544 1545 1546 1547 1548 1549 1550 1550 1552 1553 1554 1554 1555 1556 1557 1558 1559 1560 1562 1563 1563 1564 1565 1566 1567 1569 1570 1571 1572 1573 1574 1575 1576 1577
1533 1536 1538 1539 1541 1542 1543 1544 1545 1546 1547 1548 1549 1550 1550 1551 1552 1553 1554 1555 1556 1557 1558 1559 1560 1561 1562 1563 1564 1565 1566 1567 1568 1569 1570 1571 1572 1573 1574 1575 1576 1578 1579
1535 1537 1539 1541 1542 1544 1545 1546 1547 1548 1549 1549 1550 1551 1552 1553 1554 1555 1556 1557 1558 1559 1560 1561 1562 1563 1564 1565 1566 1567 1568 1569 1570 1571 1572 1573 1574 1575 1575 1577 1578 1579 1580
1537 1539 1541 1543 1544 1545 1546 1548 1548 1549 1550 1551 1552 1553 1553 1554 1555 1556 1557 1558 1559 1560 1562 1563 1564 1565 1566 1567 1568 1569 1569 1570 1571 1572 1573 1574 1575 1576 1577 1578 1579 1581 1582
1539 1541 1542 1544 1545 1547 1548 1549 1550 1551 1552 1553 1553 1554 1555 1556 1557 1558 1559 1560 1561 1562 1563 1564 1565 1566 1568 1569 1570 1570 1571 1572 1573 1574 1575 1576 1576 1577 1578 1579 1580 1582 1583
1540 1542 1544 1545 1547 1548 1549 1551 1552 1553 1553 1554 1555 1556 1556 1557 1558 1559 1560 1562 1563 1564 1565 1566 1567 1568 1569 1570 1571 1572 1573 1574 1575 1575 1576 1577 1577 1578 1579 1580 1581 1583 1584
1540 1542 1544 1546 1547 1549 1550 1552 1553 1554 1555 1555 1556 1557 1558 1559 1560 1561 1562 1563 1564 1565 1566 1567 1569 1570 1571 1572 1573 1574 1575 1575 1576 1576 1577 1578 1578 1579 1580 1581 1582 1583 1585
1540 1542 1544 1546 1548 1549 1551 1552 1554 1555 1556 1557 1558 1559 1559 1560 1561 1562 1563 1564 1566 1567 1568 1569 1570 1571 1572 1573 1574 1575 1576 1576 1577 1577 1578 1579 1579 1580 1581 1582 1583 1584 1585
1540 1542 1544 1546 1548 1550 1552 1553 1554 1555 1557 1558 1559 1560 1561 1562 1563 1564 1565 1566 1567 1568 1569 1570 1571 1573 1574 1575 1575 1576 1577 1577 1578 1578 1579 1579 1580 1581 1581 1582 1583 1584 1585
1540 1542 1545 1547 1549 1550 1552 1553 1555 1556 1558 1559 1560 1561 1562 1563 1564 1565 1566 1567 1568 1569 1571 1572 1573 1574 1575 1575 1576 1577 1578 1578 1578 1579 1579 1580 1580 1581 1582 1582 1583 1584 1585
1540 1542 1544 1546 1548 1550 1552 1554 1556 1557 1558 1559 1560 1561 1563 1564 1565 1566 1567 1568 1569 1570 1572 1572 1573 1574 1575 1576 1577 1577 1578 1578 1579 1579 1580 1580 1581 1581 1581 1582 1583 1584 1584
1540 1542 1544 1547 1549 1550 1552 1554 1556 1557 1559 1560 1561 1562 1563 1564 1565 1566 1568 1569 1570 1571 1572 1573 1574 1575 1576 1576 1577 1578 1578 1578 1579 1579 1580 1580 1580 1580 1581 1582 1582 1583 1584
1539 1541 1544 1546 1548 1550 1552 1554 1555 1557 1558 1560 1561 1562 1563 1564 1565 1566 1568 1569 1570 1571 1572 1573 1574 1575 1576 1576 1577 1577 1578 1578 1578 1579 1579 1579 1579 1580 1580 1581 1581 1582 1583
1538 1540 1543 1545 1547 1549 1551 1553 1554 1556 1557 1559 1561 1562 1563 1564 1565 1566 1568 1569 1570 1571 1572 1573 1574 1575 1575 1576 1576 1577 1577 1577 1578 1578 1578 1578 1579 1579 1579 1580 1580 1581 1581
1537 1539 1542 1544 1546 1549 1550 1552 1553 1555 1556 1558 1560 1561 1562 1563 1565 1566 1567 1569 1569 1570 1571 1572 1573 1574 1574 1575 1575 1576 1576 1576 1576 1577 1577 1577 1577 1577 1578 1578 1579 1579 1580
1535 1537 1540 1542 1545 1547 1549 1550 1552 1553 1555 1557 1558 1560 1561 1562 1564 1565 1566 1567 1568 1569 1570 1571 1572 1572 1573 1574 1574 1574 1574 1574 1574 1575 1575 1575 1575 1576 1576 1576 1577 1577 1578
1532 1535 1538 1540 1542 1544 1547 1549 1551 1552 1554 1556 1557 1559 1560 1561 1562 1564 1565 1566 1567 1568 1568 1569 1570 1571 1571 1572 1573 1573 1573 1573 1572 1572 1572 1573 1573 1573 1574 1574 1574 1575 1575
1531 1533 1536 1538 1541 1543 1546 1547 1549 1551 1553 1554 1556 1557 1559 1560 1561 1562 1563 1564 1565 1566 1566 1567 1568 1568 1569 1570 1571 1572 1571 1570 1570 1570 1570 1570 1570 1571 1571 1572 1572 1572 1573
1529 1532 1534 1537 1539 1542 1544 1546 1547 1549 1550 1552 1554 1555 1557 1558 1559 1560 1561 1562 1563 1564 1564 1565 1566 1566 1567 1567 1568 1568 1569 1569 1569 1568 1568 1568 1568 1568 1569 1569 1569 1570 1570
1528 1531 1533 1535 1538 1540 1542 1544 1546 1547 1549 1550 1552 1553 1555 1556 1557 1558 1559 1560 1561 1561 1562 1562 1563 1564 1564 1564 1565 1565 1566 1566 1566 1566 1565 1566 1566 1566 1566 1566 1567 1567 1568
1527 1529 1531 1534 1536 1539 1540 1542 1544 1545 1547 1548 1550 1551 1552 1554 1555 1556 1556 1557 1558 1558 1559 1560 1560 1560 1561 1561 1562 1562 1562 1563 1563 1563 1563 1562 1562 1563 1564 1564 1564 1564 1565